Overview Statistics Trail Chart Weather Telemetry Raw packets
 

This is the latest recevied weather packets stored in our database for station/object NC4M. If no packets are shown the sender has not sent any weather packets the latest 10 day(s).

<< 3 4 5 6 7 8 9 >>
Time Temp. Humidity Pressure Rain* Wind** Luminosity Snow
1788543470 36.67° C 40% 1016.9 hPa 0 mm - 854 W/m² -
1788543170 36.67° C 42% 1016.9 hPa 0 mm - 841 W/m² -
1788542866 36.11° C 43% 1017.3 hPa 0 mm - 841 W/m² -
1788542564 36.11° C 44% 1017.3 hPa 0 mm - 838 W/m² -
1788542260 36.11° C 43% 1017.1 hPa 0 mm - 824 W/m² -
1788541955 36.11° C 44% 1017.4 hPa 0 mm - 819 W/m² -
1788541652 36.11° C 47% 1017.4 hPa 0 mm - 810 W/m² -
1788541347 35.56° C 46% 1017.4 hPa 0 mm - 802 W/m² -
1788541046 35.56° C 47% 1017.5 hPa 0 mm - 794 W/m² -
1788540741 35° C 49% 1017.5 hPa 0 mm - 785 W/m² -
1788540441 34.44° C 48% 1017.6 hPa 0 mm - 772 W/m² -
1788540136 34.44° C 47% 1017.8 hPa 0 mm - 761 W/m² -
1788539832 33.89° C 50% 1017.7 hPa 0 mm - 757 W/m² -
1788539527 33.89° C 50% 1017.5 hPa 0 mm - 744 W/m² -
1788539226 33.33° C 52% 1017.4 hPa 0 mm - 735 W/m² -
1788538921 33.33° C 51% 1017.6 hPa 0 mm - 730 W/m² -
1788538617 33.33° C 55% 1017.7 hPa 0 mm - 661 W/m² -
1788538312 33.33° C 56% 1017.6 hPa 0 mm - 95 W/m² -
1788538008 32.78° C 55% 1017.7 hPa 0 mm - 62 W/m² -
1788537703 32.78° C 53% 1017.8 hPa 0 mm - 143 W/m² -
1788537398 32.78° C 57% 1017.7 hPa 0 mm - 70 W/m² -
1788537097 32.78° C 55% 1017.8 hPa 0 mm - 76 W/m² -
1788536796 32.22° C 58% 1017.8 hPa 0 mm - 57 W/m² -
1788536496 31.67° C 57% 1017.7 hPa 0 mm - 58 W/m² -
1788536191 31.67° C 58% 1017.6 hPa 0 mm - 65 W/m² -

* Rain latest hour (hover to see other rain measurements)
** Current wind speed in m/s (hover to see current wind gust speed)